ROMMA est une association bénévole à but non lucratif. Votre soutien est indispensable : ADHERER à ROMMA ou FAIRE un DON

Voiron - (38, Isère)

Voironnais (300 m)   Longitude: 05° 35' E   Latitude: 45° 23' N Station partenaire n°109
 

Détail journalier du     <<     >>

Température Precipitation Humidité Pression Vent Dir Rafale Dir. rafale Ensol.
Heure (°C) (mm) (%) (hPa) (km/h) (km/h) (min)
01:00 7.906210292E8ENE0
02:00 7.706310302N10NO0
03:00 6.606810292NO6NO0
04:00 6.606710294SE15NE0
05:00 6.406810302S8S0
06:00 5.107210302ESE15ENE0
07:00 4.407410302NO8NO0
08:00 7.006810312NO8NNO30
09:00 8.206510312S8SSE60
10:00 8.706310316S11SSE60
11:00 11.305510314ENE13SSO60
12:00 12.105310306NE15SE60
13:00 13.905110307SE19O60
14:00 14.704710298N19N60
15:00 15.1046102913N26NNO60
16:00 15.9043102814NNO26N60
17:00 15.7044102816N29N60
18:00 15.2045102812N26NNO60
19:00 14.1050102812N23NNO30
20:00 12.905410296N16N0
21:00 11.106110292NO5NO0
22:00 9.606610292NNO8N0
23:00 8.7069102903NNO0
minuit 7.707110292NNO6NNO0

Graphique du 28-03-2019

 

Serveur OMMA